{"data":{"norad_id":82484,"epoch":"2026-05-24T00:21:50.135040Z","epoch_age_seconds":156836,"freshness":"FRESH","line1":"1 82484U          26144.01516360  .00000050  00000+0  13001-3 0  9997","line2":"2 82484  99.3419 162.2331 0045607 141.5925 218.8475 13.55859774612626","mean_motion":13.55859774,"eccentricity":0.0045607,"inclination_deg":99.3419,"raan_deg":162.2331,"arg_perigee_deg":141.5925,"mean_anomaly_deg":218.8475,"bstar":0.00013001,"rev_number":61262,"period_min":106.20567315393,"perigee_km":1016.8958338349,"apogee_km":1084.6579289124,"semimajor_km":7428.9138813737,"source":"CELESTRAK","updated_at":"2026-05-25T13:38:11.190075Z"}}